Regional Weather Roundup
Issued by NWS

Home | Current Version | Previous Version | Graphics & Text | Print | Product List | Glossary On
Versions: 1 2 3 4 5 6 7 8 9 10 11 12 13 14 15 16 17 18 19 20 21 22 23 24 25 26 27 28 29 30 31 32 33 34 35 36 37 38 39 40 41 42 43 44 45 46 47 48 49 50
000
ASUS45 KBOU 262007
RWRCO

WEATHER ROUNDUP FOR COLORADO
NATIONAL WEATHER SERVICE DENVER/BOULDER CO
200 PM MDT THU MAR 26 2015

NOTE: "FAIR" INDICATES FEW OR NO CLOUDS BELOW 12000 FEET WITH NO
SIGNIFICANT WEATHER AND/OR OBSTRUCTIONS TO VISIBILITY.

COZ001>005-013-030-031-262100-
...NORTHWEST COLORADO...

CITY           SKY/WX    TMP DP  RH WIND       PRES   REMARKS
CRAIG          MOSUNNY   51  24  34 SW10      30.31F
HAYDEN         MOSUNNY   46  21  36 NW13G18   30.31F
MEEKER         SUNNY     51  25  36 S9        30.31F
MOUNT WERNER   NOT AVBL
STEAMBOAT SPGS MOSUNNY   41  21  45 SW3       30.32F
WALDEN         CLOUDY    39  21  48 SW9       30.27F
$$

COZ006>008-011-262100-
...WEST CENTRAL VALLEYS...

CITY           SKY/WX    TMP DP  RH WIND       PRES   REMARKS
GRAND JUNCTION SUNNY     57  17  21 SE8       30.30F
MONTROSE       SUNNY     54  15  21 VRB7      30.33F
EAGLE          MOSUNNY   52  18  25 S14       30.32F
RIFLE          SUNNY     55  20  25 S5        30.29F
DELTA          SUNNY     58  15  18 W6        30.32F
NUCLA          SUNNY     59  18  20 NW8       30.34F
$$

COZ017>023-064>068-262100-
...SOUTHWEST COLORADO...

CITY           SKY/WX    TMP DP  RH WIND       PRES   REMARKS
DURANGO        SUNNY     54  11  18 VRB3      30.28F
CORTEZ         SUNNY     62  15  16 SW13G21   30.27F
PAGOSA SPRINGS SUNNY     53   5  14 SW12      30.29F
TELLURIDE      SUNNY     47  15  26 W9G24     30.37S
WOLF CREEK PAS MOSUNNY   36  10  35 W7        30.42S
$$

COZ009-010-012-014-032>034-037-058>063-262100-
...CENTRAL COLORADO...

CITY           SKY/WX    TMP DP  RH WIND       PRES   REMARKS
ASPEN          MOSUNNY   45  22  40 N6        30.32F
BUENA VISTA    MOSUNNY   55  12  18 N29G39    30.21F
COPPER MTN     PTSUNNY   30  14  51 W18G30    30.36F WCI  18
BERTHOUD PASS  CLOUDY    18  12  79 NW31      30.32F HAZE    WCI  -2
COTTONWOOD PAS MOSUNNY   48  12  23 W3        30.29S
GUNNISON       MOSUNNY   48  18  29 SW10      30.32F
KREMMLING      MOSUNNY   46  18  31 W5        30.32F
LEADVILLE      MOSUNNY   37  16  42 NW12      30.30F
SALIDA         MOSUNNY   53  13  20 W5        30.29F
SUNLIGHT       MOSUNNY   36  21  55 W5        30.42S
WILKERSON PASS PTSUNNY   34  14  44 N10G26    30.33R WCI  26
$$

COZ069>075-262100-
...SAN LUIS VALLEY/SANGRE DE CRISTO MOUNTAINS...

CITY           SKY/WX    TMP DP  RH WIND       PRES   REMARKS
ALAMOSA        SUNNY     54  10  17 N12       30.25F
LA VETA PASS   SUNNY     43  18  36 S9        30.28F
SAGUACHE       MOSUNNY   54  12  19 NW14G30   30.24F
$$

COZ035-036-038>040-262100-
...NORTHERN COLORADO FRONT RANGE...

CITY           SKY/WX    TMP DP  RH WIND       PRES   REMARKS
DENVER INTL AP PTSUNNY   58  21  24 N9        30.16F
DMNS CITY PARK   N/A     59  21  23 SW10      30.14F
AURORA         NOT AVBL
FRONT RANGE AP PTSUNNY  N/A N/A N/A MISG        N/A
ERIE MUNI ARPT   N/A    N/A N/A N/A MISG        N/A
BOULDER MUN AP MOSUNNY   59  23  25 N3        30.14F
CENTENNIAL     PTSUNNY   54  19  25 VRB3      30.16F
BROOMFIELD     PTSUNNY   59  21  23 VRB6      30.15F
FORT COLLINS   MOSUNNY   57  27  30 SW9       30.15F
LONGMONT       MOSUNNY   63  22  20 N3        30.15F
$$

COZ041-046-047-076>085-087-088-262100-
...PIKES PEAK/PALMER DIVIDE AND SOUTHERN FOOTHILLS...

CITY           SKY/WX    TMP DP  RH WIND       PRES   REMARKS
COLO. SPRINGS  PTSUNNY   55  17  22 S10       30.19F
A. F. ACADEMY  NOT AVBL
ELLICOTT       MOSUNNY  N/A N/A N/A N13       30.17F
FALCON         MOSUNNY   55  17  22 NW9G31    30.20F
FORT CARSON    NOT AVBL
LIMON          MOSUNNY   56  21  25 NW22G28   30.16F
MONUMENT HILL  SUNNY     48  19  32 N8        30.19F
TRINIDAD       SUNNY     56  18  22 N7        30.20F
$$

COZ042>045-048>051-090-091-262100-
...NORTHEAST COLORADO...

CITY           SKY/WX    TMP DP  RH WIND       PRES   REMARKS
GREELEY ARPT   MOSUNNY   57  27  30 W7        30.13F
AKRON          CLOUDY    55  23  28 N22G30    30.13F
BURLINGTON     PTSUNNY   58  24  27 N21G30    30.13F
WRAY           CLOUDY    59  24  25 NW24G31   30.10F
STERLING       PTSUNNY   59  27  29 NW24      30.10F
HOLYOKE        CLOUDY    59  28  31 NW25G36   30.10F
FORT MORGAN    CLOUDY    56  20  24 NW28G33   30.15S
$$

COZ086-089-092>099-262100-
...SOUTHEAST COLORADO...

CITY           SKY/WX    TMP DP  RH WIND       PRES   REMARKS
PUEBLO         SUNNY     57  20  23 VRB5      30.17F
LA JUNTA       SUNNY     63  21  20 NW13G21   30.16F
LAMAR          MOSUNNY   63  23  21 NW12G20   30.13F
SPRINGFIELD      N/A     60  20  21 NW14G24   30.16F
$$


USA.gov is the U.S. government's official web portal to all federal, state and local government web resources and services.